CZ-6A DEB

Satellite information

Favourite Embed

Satellite Type and Status

DEBRISIN ORBIT

Key statistics

Satellite CZ-6A DEB at a glance.

Uptime

909

Days in orbit

Revolutions

≈ 14.5

Per day

Orbit

SSO

Sun Synchronous Orbit

Inclination

98.6

Latest

Satellite identification and parameters

Extended collection of information and parameters for CZ-6A DEB.

Object identification

Identified? True

Debris? True

Object name: CZ-6A DEB

International designator: 2022-151TX

Object number (NORAD): 54982

Object ID (CCSDS): 54982

Country: PEOPLES REPUBLIC OF CHINA (PRC)

Current information (Y/N): Y

RCS size: SMALL

Orbital parameters

Period: 99.596 minutes

Inclination: 98.608 deg

SMA: 7117.4 km

Apoapsis: 783.423 km

Periapsis: 695.108 km

RAAN: 142.5259 deg

Eccentricy: 0.0062042

Argument of periapsis: 165.5773 deg

Mean anomaly: 194.7207 deg

Mean motion: 14.45841405 rev/day

Mean motion (dot): 0.0000967 rev/day2

B* drag term: 0.0026692 1/REarth

Two-line elements (TLE)

Creation date: May 7, 2025, 3:14 a.m.

Reference frame: TEME

Reference center: EARTH

Epoch: May 6, 2025, 12:14 a.m. UTC

TLE line 0: 0 CZ-6A DEB

TLE line 1: 1 54982U 22151TX 25126.00994357 .00009670 00000-0 26692-2 0 9991

TLE line 2: 2 54982 98.6080 142.5259 0062042 165.5773 194.7207 14.45841405129083

Live tracking on map

Real-time ground track for satellite CZ-6A DEB.

In-orbit conjunctions

A list of the most updated potential collisions computed for object CZ-6A DEB.

Target Orbit TCA Probability of collision Miss distance Type
CZ-6A DEB SSO 2024-11-12 17:43:12 0.0005465689 675.0 (m) DEBRIS
TITAN 3C TRANSTAGE DEB LEO 2024-11-09 12:34:52 0.0001205208 710.0 (m) DEBRIS
BLITS SSO 2024-08-10 21:26:05 0.0002511314 854.0 (m) PAYLOAD

Associated space launch

Chinese satellite reported for atmospheric/ocean/environmental/spatial parameter research purposes, details TBD.

CZ-6A DEB was lifted into orbit during the mission ‘Long March 6A | Yunhai 3’, on board a Long March 6A space rocket.

The launch took place on Nov. 11, 2022, 10:52 p.m. from Launch Complex 9A.

For more information about the launch, click the button.

Launch to space Long March 6A | Yunhai 3
Long March 6A | Yunhai 3

Agency: N/A

Status: Launch Successful

Launch date: Nov. 11, 2022, 10:52 p.m. UTC

Rocket: Long March 6A

Launch pad: Launch Complex 9A

Location: Taiyuan Satellite Launch Center, People's Republic of China

...

Latest news about this satellite

There are no fresh news available about this satellite. Check back as we update our databases every day.


Newsletter sign-up

Weekly statistics, charts and insights to help you stay on top of the space industry.